This demonstration page uses our WeatherBlox Daily Observations layout. Learn more.

Left ArrowRight Arrow

44.89941, -97.11507

Hourly Observations for November 16, 2020

Temp ( °F °C ) Dew Point ( °F °C ) Humidity (%) Winds ( mph kmh ) Pressure ( in mb ) Visibility ( mi km ) Precip ( " mm )
12:53 am 00:53 Cloudy 27 -2.8 21 -6.1 78 78 SSE 6 9 29.98 1015 10 16 0.00 0.00
1:53 am 01:53 Mostly Clear 26 -3.3 21 -6.1 81 81 SSE 9 15 29.97 1015 10 16 0.00 0.00
2:53 am 02:53 Cloudy 26 -3.3 21 -6.1 81 81 SSE 9 15 29.96 1015 10 16 0.00 0.00
3:53 am 03:53 Mostly Cloudy 29 -1.7 21 -6.1 72 72 S 8 13 29.93 1014 10 16 0.00 0.00
4:53 am 04:53 Mostly Cloudy 29 -1.7 22 -5.6 75 75 SSE 14 22 29.91 1013 10 16 0.00 0.00
5:53 am 05:53 Mostly Cloudy 30 -1.1 23 -5 75 75 SW 12 19 29.93 1014 10 16 0.00 0.00
6:53 am 06:53 Clear 32 0 23 -5 69 69 WSW 13 20 29.93 1013 10 16 0.00 0.00
7:53 am 07:53 Sunny 31 -0.6 25 -3.9 79 79 W 14 22 29.98 1015 10 16 0.00 0.00
8:53 am 08:53 Sunny 38 3.3 28 -2.2 68 68 W 16 26 30.00 1016 10 16 0.00 0.00
9:53 am 09:53 Sunny 40 4.4 29 -1.7 65 65 WNW 22 35 30.03 1017 10 16 0.00 0.00
10:53 am 10:53 Sunny 40 4.4 30 -1.1 68 68 NW 18 30 30.06 1018 10 16 0.00 0.00
11:53 am 11:53 Sunny 41 5 30 -1.1 65 65 NW 23 37 30.09 1019 10 16 0.00 0.00
12:53 pm 12:53 Mostly Sunny 39 3.9 29 -1.7 67 67 NW 23 37 30.14 1021 10 16 0.00 0.00
1:53 pm 13:53 Mostly Cloudy 38 3.3 27 -2.8 65 65 NNW 16 26 30.18 1022 10 16 0.00 0.00
2:53 pm 14:53 Cloudy 38 3.3 26 -3.3 62 62 NW 16 26 30.22 1023 10 16 0.00 0.00
3:53 pm 15:53 Cloudy 36 2.2 26 -3.3 67 67 NNW 13 20 30.25 1025 10 16 0.00 0.00
4:53 pm 16:53 Cloudy 32 0 26 -3.3 79 79 N 16 26 30.29 1026 10 16 0.00 0.00
5:06 pm 17:06 Cloudy 31 -0.6 25 -3.9 79 79 N 13 20 30.32 1027 10 16 0.00 0.00
5:53 pm 17:53 Cloudy 30 -1.1 24 -4.4 79 79 NNW 9 15 30.32 1027 10 16 0.00 0.00
6:53 pm 18:53 Partly Cloudy 25 -3.9 22 -5.6 88 88 N 7 11 30.35 1028 10 16 0.00 0.00
7:53 pm 19:53 Clear 24 -4.4 21 -6.1 88 88 N 5 7 30.37 1029 10 16 0.00 0.00
8:53 pm 20:53 Clear 19 -7.2 17 -8.3 92 92 NNE 6 9 30.39 1029 10 16 0.00 0.00
9:53 pm 21:53 Clear 21 -6.1 18 -7.8 88 88 NNE 3 6 30.42 1030 10 16 0.00 0.00
10:53 pm 22:53 Clear 20 -6.7 18 -7.8 92 92 Calm 30.41 1030 10 16 0.00 0.00
11:53 pm 23:53 Clear 20 -6.7 17 -8.3 89 89 Calm 30.42 1030 10 16 0.00 0.00

Powered by AerisWeather